CAPE
2145 2934 3674 3699 3416 3252 3080 3101 2969 2941 2973 3034 3372 3438 3167 2766 2857 2886 2914 2342 1907 1694 1255 1421 1551 1516 1513 1281 1788 1640 1437 1506 1711 1433 1375 1394 1292 1225 1259 852 810 382 632
2187 2805 3576 3753 3786 3579 3620 3452 3116 3194 2880 3024 3109 3197 3144 3170 2875 2763 2666 2431 1899 1647 1552 1481 1626 1639 1694 1536 1670 1629 1800 2106 2193 1583 1388 1376 1478 1308 1025 831 679 740 747
2185 2722 3338 3622 3821 3766 3850 3686 3408 3293 2880 2765 3068 3007 2868 3084 2855 2244 2311 2238 2059 1886 1744 1686 1543 1734 1891 1336 1771 1774 1837 1975 2407 2195 1585 843 677 999 1085 915 837 903 724
2248 2551 2916 3541 3762 3985 3995 3859 3578 3267 2984 2941 2838 2700 2865 2780 2566 2353 2084 1884 1666 1664 1530 1580 1546 1499 1823 1500 1550 2052 1809 1905 1814 1641 752 775 816 1284 1120 1005 1023 846 829
2239 2585 2906 3779 3768 3952 4171 3959 3768 3405 3325 3323 2957 2567 2346 2499 2569 2326 2205 2114 1969 1525 1416 1379 1429 1515 1622 1723 1387 2169 2022 1928 1818 1038 424 528 782 1370 1249 1129 1032 963 833
2590 2721 3782 3909 3991 4253 4252 4075 3773 3381 3262 3442 3197 2524 2298 2186 2514 2423 2389 1948 2122 1618 1593 1564 1422 1341 1586 1751 1612 2161 2098 1505 1156 810 594 790 962 1551 1294 1185 1151 443 815
2543 2943 3459 4007 4176 4362 4332 4111 3825 3352 3135 3375 3259 2566 2398 2337 2629 2353 1794 2082 1975 1864 1710 1763 1449 1567 1519 1594 1759 1874 1740 806 689 543 553 690 1064 1898 1200 1146 1233 806 748
2474 2789 3124 3895 4032 4114 4268 4166 3880 3549 3232 3298 3310 2958 2704 2671 2782 2335 2389 2167 2207 1950 2041 1772 1505 1543 1606 1898 1679 1925 1600 996 916 744 616 581 1672 2123 1369 1260 1256 876 753
2694 2800 2996 3179 3092 3630 4098 4029 3894 3737 3526 3447 3559 3557 3200 2932 2653 2476 2607 2457 2213 2007 2104 1877 1633 1781 1555 1682 1946 1915 1720 953 801 752 858 554 1750 2086 1485 1477 1167 922 341
2525 2885 3142 3152 2844 3371 3303 4055 3905 3814 3574 3041 3175 3185 3136 3005 2564 2675 2844 2811 2235 2160 1990 1899 1883 2040 2337 1660 1652 1757 1634 1235 487 650 766 639 1779 2337 1565 1495 1019 1228 951
2250 2521 2835 2925 2861 2928 3202 3645 4153 3600 3171 3133 3159 3311 3241 2073 1984 2258 2759 2470 2275 1991 1952 1828 1688 2080 1876 1784 1649 1825 1681 858 418 153 679 1199 1977 2596 1802 1816 1772 1211 1063
2129 2198 2548 2492 2436 2509 3184 2917 3270 2988 2721 2569 2486 2371 2259 1954 1933 2117 2120 2259 2227 2056 2071 2053 2241 1853 1633 1344 1143 1440 1229 806 316 594 567 1392 1991 2556 2231 2293 1789 1122 679
2294 2343 2309 2477 2422 2563 2718 2225 2078 1452 1469 1377 1317 1705 1712 1762 1778 2016 1440 1747 1442 1764 1363 1888 2158 1866 1493 1193 1068 851 620 573 407 610 746 1380 1736 2290 1733 2063 1678 1512 1032
2259 2456 2382 2333 2109 2124 1779 1631 1533 1274 1053 1056 1031 903 1380 1378 1120 1237 1300 1352 1272 1269 1179 1166 1459 1407 1108 1172 928 708 567 475 416 281 730 1220 1741 2098 1843 1691 1601 1348 1354
2103 2277 2147 1862 1551 1390 1073 863 735 1158 1111 885 646 515 832 888 920 1099 1160 1032 1048 1103 1020 985 964 916 1004 1065 991 694 565 532 424 296 238 828 1720 2200 2163 1755 1370 1388 1366
1961 2179 1919 1638 1414 704 293 18 0 66 830 920 833 552 650 433 400 403 767 690 763 632 681 866 662 680 568 470 706 711 685 408 495 381 345 483 1323 2168 2215 2297 1740 1362 1256
1929 2209 2047 1626 1487 465 163 0 0 0 239 921 485 788 439 195 128 273 566 539 445 472 490 624 588 604 568 628 715 639 551 516 385 494 417 244 311 1821 2322 2553 2285 2175 1927
2062 2323 2154 2145 1644 673 380 227 0 81 859 610 307 9 399 227 374 578 422 487 305 316 484 431 402 554 497 597 663 555 529 242 412 549 311 372 361 598 2017 2252 2497 2296 2301
1987 2023 2275 2241 1801 1293 1451 979 822 1004 871 577 531 339 264 436 333 316 482 372 257 358 368 442 331 398 396 395 382 433 452 444 615 795 552 473 433 310 324 1886 2282 2224 2144
1662 1922 2020 2073 2003 1948 1940 1397 1167 668 624 768 677 646 584 541 500 222 248 322 205 223 317 360 304 330 244 329 530 628 538 314 347 432 620 561 487 558 581 704 1670 1764 2213
1808 1821 1774 1874 1891 1568 1297 1119 733 595 353 241 231 361 472 307 664 402 193 215 170 223 190 384 241 92 179 278 195 222 296 356 449 293 248 506 438 381 562 547 491 885 1213
1788 1936 1699 1384 1349 1203 1235 693 364 238 95 76 45 172 320 235 192 148 119 104 89 253 108 254 304 286 179 194 118 52 108 97 198 258 395 274 336 535 554 357 420 543 612
1 493 1213 1331 1154 1121 852 440 228 69 0 38 52 56 72 145 94 89 92 31 16 175 193 219 264 216 216 245 126 38 61 50 122 187 423 258 319 157 358 391 445 310 331
2 543 1164 991 1326 909 569 318 248 163 79 11 15 6 9 32 70 84 79 61 45 41 107 142 210 152 107 203 183 262 103 76 50 1 50 242 225 193 174 245 330 250 238
2 402 705 1205 1035 666 508 132 85 2 0 0 0 0 0 0 3 35 99 60 76 48 36 116 160 77 76 67 43 94 89 116 38 39 25 16 195 272 147 198 186 217 219
1302 381 667 1027 832 371 115 18 43 0 0 0 0 0 0 0 0 0 103 54 99 101 125 137 93 0 22 8 0 1 46 78 43 50 48 41 39 23 140 105 111 142 194
CIN
-2 -0 -0 -0 -0 -0 -1 -2 -1 -0 -0 -0 -0 -0 -0 -0 -0 -0 -0 -0 -0 -0 -0 -0 -0 -0 -1 -4 -1 -1 -5 -4 -0 -0 -0 -0 -0 -0 -0 -0 -0 -11 -2
-23 -0 -0 -0 -0 -0 -0 -0 -0 -0 -0 -0 -0 -0 -0 -0 -0 -0 -0 -0 -0 -0 -0 -0 -0 -2 -0 -1 -0 -0 -0 -0 -0 -0 -0 -0 -0 -0 -0 -0 -0 -0 -0
-41 -0 -0 -0 -0 -0 -0 -0 -0 -0 -0 -0 -0 -0 -0 -0 -0 -0 -0 -0 -0 -0 -0 -0 -1 -4 -1 -1 -2 -0 -0 -0 -0 -0 -0 -7 -4 -0 -0 -0 -0 -0 -0
-54 -4 -0 -0 -0 -0 -0 -0 -0 -0 -0 -1 -0 -0 -0 -0 -0 -0 -0 -0 -0 -0 -0 -0 -0 -4 -1 -4 -1 -0 -0 -1 -1 -1 -25 -18 -0 -0 -0 -0 -0 -0 -0
-61 -27 -2 -0 -0 -0 -0 -0 -0 -0 -0 -0 -0 -0 -3 -4 -0 -0 -0 -0 -0 -0 -0 -0 -0 -0 -4 -4 -6 -0 -0 -0 -3 -11 -37 -34 -17 -0 -0 -0 -0 -0 -0
-30 -10 -0 -0 -0 -0 -0 -0 -0 -0 -0 -0 -0 -3 -3 -3 -0 -0 -0 -0 -0 -0 -1 -0 -0 -0 -2 -4 -2 -1 -1 -4 -6 -14 -24 -23 -23 -0 -0 -0 -0 -0 -0
-13 -0 -0 -0 -0 -0 -0 -0 -0 -1 -2 -0 -0 -2 -1 -0 -0 -0 -1 -0 -0 -0 -0 -0 -0 -0 -0 -9 -3 -1 -5 -12 -28 -26 -43 -32 -19 -0 -0 -0 -0 -0 -0
-31 -0 -0 -0 -0 -0 -0 -0 -0 -0 -1 -0 -0 -0 -0 -0 -0 -0 -0 -0 -0 -0 -0 -0 -0 -0 -0 -2 -6 -1 -6 -10 -13 -16 -53 -40 -10 -0 -0 -0 -0 -0 -0
-41 -19 -1 -2 -6 -0 -0 -0 -0 -0 -0 -0 -0 -0 -0 -0 -0 -0 -0 -0 -0 -0 -0 -2 -0 -0 -0 -9 -3 -3 -5 -6 -17 -21 -39 -60 -9 -0 -0 -0 -0 -0 -0
-45 -28 -13 -6 -29 -7 -8 -0 -0 -0 -0 -0 -0 -0 -0 -0 -0 -0 -0 -0 -1 -0 -1 -2 -5 -0 -0 -4 -13 -4 -9 -10 -29 -30 -42 -59 -7 -0 -0 -0 -0 -0 -0
-45 -35 -17 -15 -28 -36 -12 -1 -0 -0 -0 -0 -1 -0 -0 -18 -11 -1 -3 -2 -2 -1 -0 -1 -6 -0 -0 -1 -9 -4 -4 -44 -48 -115 -46 -22 -5 -0 -0 -0 -0 -0 -0
-59 -51 -39 -43 -66 -62 -9 -16 -8 -9 -19 -16 -20 -21 -14 -28 -32 -20 -19 -5 -4 -2 -0 -0 -1 -0 -1 -18 -28 -10 -14 -42 -53 -56 -60 -18 -6 -0 -0 -0 -0 -0 -0
-79 -55 -49 -47 -66 -62 -37 -60 -61 -115 -119 -110 -95 -40 -38 -27 -24 -14 -62 -27 -58 -15 -30 -7 -3 -4 -12 -31 -42 -48 -69 -60 -52 -67 -44 -13 -13 -1 -0 -0 -0 -0 -0
-88 -60 -60 -58 -81 -73 -95 -108 -115 -132 -140 -137 -149 -135 -69 -61 -83 -73 -67 -64 -74 -66 -56 -41 -23 -23 -27 -23 -45 -54 -65 -65 -72 -114 -67 -11 -11 -7 -0 -0 -0 -0 -0
-95 -90 -100 -118 -125 -146 -167 -197 -208 -118 -111 -137 -163 -195 -140 -128 -110 -87 -80 -81 -75 -61 -72 -66 -54 -58 -54 -31 -41 -60 -62 -52 -44 -101 -150 -42 -6 -4 -0 -0 -0 -0 -0
-112 -106 -134 -149 -168 -240 -301 -142 -0 -101 -143 -123 -134 -178 -164 -190 -182 -154 -96 -99 -81 -95 -89 -70 -75 -59 -94 -92 -53 -58 -52 -64 -54 -82 -97 -58 -11 -3 -1 -0 -0 -0 -0
-135 -87 -112 -143 -161 -292 -318 -0 -0 -0 -279 -128 -176 -123 -163 -193 -209 -152 -102 -102 -105 -91 -80 -77 -69 -81 -88 -80 -60 -49 -56 -65 -51 -58 -52 -89 -64 -2 -1 -0 -0 -0 -0
-135 -115 -103 -95 -172 -259 -276 -307 -0 -327 -145 -168 -214 -72 -160 -173 -117 -74 -82 -79 -109 -113 -78 -96 -88 -74 -76 -70 -66 -69 -72 -116 -89 -41 -89 -68 -76 -43 -1 -1 -0 -0 -0
-162 -145 -107 -101 -136 -176 -148 -209 -194 -145 -166 -190 -156 -166 -162 -117 -109 -75 -65 -76 -87 -77 -72 -60 -85 -74 -88 -88 -99 -95 -87 -95 -84 -31 -59 -57 -88 -101 -100 -5 -0 -0 -0
-175 -144 -113 -122 -101 -80 -87 -118 -126 -185 -178 -138 -138 -123 -116 -107 -91 -116 -91 -65 -75 -74 -59 -62 -86 -90 -130 -96 -77 -67 -84 -110 -109 -91 -72 -76 -88 -75 -68 -48 -4 -3 -1
-162 -133 -122 -93 -108 -145 -131 -105 -127 -114 -131 -167 -168 -113 -97 -130 -75 -84 -107 -77 -68 -59 -86 -61 -100 -133 -107 -101 -107 -96 -106 -95 -87 -118 -120 -79 -87 -94 -79 -71 -72 -35 -18
-103 -123 -115 -136 -147 -136 -125 -154 -149 -169 -181 -188 -235 -130 -80 -99 -104 -102 -86 -88 -85 -47 -76 -51 -46 -72 -106 -107 -113 -164 -78 -106 -107 -116 -100 -112 -89 -65 -58 -94 -83 -49 -48
-120 -117 -115 -151 -157 -136 -121 -147 -174 -203 -0 -196 -167 -141 -119 -93 -85 -89 -78 -89 -89 -58 -43 -55 -47 -71 -76 -89 -149 -128 -105 -95 -133 -129 -82 -114 -75 -107 -79 -74 -60 -74 -74
-135 -41 -4 -118 -105 -100 -136 -124 -120 -121 -58 -137 -149 -129 -108 -91 -65 -68 -84 -80 -67 -72 -48 -63 -64 -86 -120 -72 -111 -108 -162 -158 -149 -25 -194 -116 -97 -106 -125 -96 -58 -63 -70
-24 -117 -137 -115 -82 -120 -121 -178 -213 -22 -0 -0 -0 -0 -0 -0 -90 -62 -59 -87 -48 -53 -37 -56 -53 -91 -118 -122 -131 -144 -131 -100 -158 -154 -213 -225 -147 -111 -135 -111 -100 -73 -57
-111 -218 -170 -130 -118 -160 -207 -270 -241 -0 -0 -0 -0 -0 -0 -0 -0 -0 -45 -70 -45 -38 -34 -51 -74 -0 -139 -101 -8 -32 -124 -97 -137 -151 -167 -216 -192 -170 -127 -128 -105 -83 -68
Wind_Speed
9 10 13 13 14 14 16 16 16 15 15 16 16 17 16 17 17 17 15 15 13 13 12 12 12 9 11 12 12 14 15 16 18 18 17 17 18 17 16 16 16 13 16
14 10 14 14 14 14 16 15 15 15 15 15 15 16 15 16 16 15 14 13 13 12 12 11 11 11 10 12 13 15 16 15 16 17 17 17 16 16 16 15 15 13 16
14 11 12 15 15 14 15 15 15 15 15 15 14 15 14 13 15 16 14 12 13 12 11 10 10 12 13 11 13 15 16 14 15 16 16 6 6 13 16 16 16 16 15
16 11 11 14 14 14 15 14 15 15 16 15 14 15 14 13 12 13 13 12 11 11 11 9 9 11 13 11 11 15 14 13 14 15 6 5 9 16 15 15 16 16 15
14 11 12 16 15 14 15 15 15 16 16 15 14 13 14 14 13 11 10 11 9 10 10 8 8 9 10 11 10 14 13 11 11 11 6 5 5 13 15 16 15 15 14
13 12 15 16 14 14 16 16 16 16 16 15 14 13 12 13 13 12 10 8 9 8 8 9 7 8 9 10 9 12 11 11 10 4 4 7 5 13 16 15 15 14 13
13 12 11 14 12 13 14 16 15 15 15 15 14 13 11 11 11 11 9 7 7 7 8 8 8 8 9 9 9 10 10 11 5 3 6 6 5 13 15 15 15 15 13
15 11 12 14 13 13 14 15 16 15 14 14 14 13 12 11 10 9 9 6 6 6 8 8 9 9 8 9 9 8 8 9 5 3 6 6 12 12 14 14 14 14 13
14 12 10 10 13 14 14 15 15 15 14 13 12 12 12 12 11 9 8 8 6 5 6 9 9 9 8 7 8 10 7 7 3 2 5 5 14 13 15 15 14 14 13
10 11 11 9 8 6 6 12 12 12 12 12 12 12 12 12 10 9 7 5 6 6 6 7 10 8 8 8 8 8 8 7 2 1 4 4 15 17 17 16 15 13 14
9 10 10 9 8 7 6 7 11 13 12 13 12 13 9 4 5 7 8 8 7 7 7 7 8 9 9 9 9 8 8 2 2 0 2 13 16 17 18 16 15 14 13
10 9 10 9 8 8 6 5 5 5 4 4 4 4 4 5 5 5 6 8 10 8 8 9 9 9 8 3 2 6 2 3 1 3 2 14 14 15 17 16 15 15 15
13 9 9 9 8 8 6 4 3 3 3 3 4 2 3 3 3 3 3 3 2 7 2 4 4 3 4 3 3 3 4 4 2 4 5 14 16 16 17 17 16 16 15
13 14 12 10 8 6 4 4 4 4 3 3 5 6 4 3 3 3 3 3 2 1 4 2 3 4 5 5 4 4 5 4 3 2 5 12 14 15 17 17 17 16 15
9 10 11 9 8 7 7 4 4 4 4 4 4 5 5 4 4 4 3 3 3 2 4 4 3 4 5 5 5 5 5 6 6 5 4 18 14 14 16 17 17 16 15
7 9 10 11 9 8 6 6 4 4 4 4 4 5 5 3 4 4 4 4 3 3 3 4 4 4 4 3 5 5 6 5 9 5 5 7 16 16 16 17 18 17 16
7 8 10 9 8 8 7 6 4 5 5 4 4 5 6 6 5 5 4 4 4 4 4 4 4 3 2 3 5 4 4 5 5 7 3 5 5 15 17 17 16 16 16
9 11 9 9 10 8 7 5 5 4 4 4 4 4 6 6 7 5 4 5 5 4 4 3 3 3 3 3 3 4 4 4 6 8 12 8 5 6 13 17 17 17 17
13 11 9 9 11 9 6 5 5 6 4 4 4 4 6 7 7 6 5 5 5 4 4 4 3 3 3 3 3 3 3 5 6 8 11 10 8 7 5 14 17 17 19
11 12 10 7 7 8 5 2 1 2 3 4 5 5 7 6 9 7 5 6 5 4 4 3 4 3 3 3 3 3 3 4 4 4 6 5 5 7 7 6 7 10 18
11 12 11 9 8 5 3 2 1 3 2 2 3 6 7 6 8 8 6 6 5 6 6 5 3 5 3 2 2 2 1 4 4 4 4 5 6 6 6 6 6 4 7
8 16 10 8 7 5 3 3 2 2 2 2 2 5 5 5 6 6 6 6 7 4 6 6 5 3 3 4 3 1 1 3 3 4 4 4 6 4 6 5 5 6 6
8 9 10 8 6 6 5 3 2 2 1 2 1 3 4 6 5 6 6 6 7 6 6 7 7 6 4 3 5 4 2 4 1 1 3 3 5 4 4 5 7 8 6
11 7 2 4 7 5 6 3 3 2 2 3 2 3 5 5 5 6 6 6 6 5 6 7 6 6 5 4 3 3 2 3 3 1 1 2 4 5 5 4 5 5 7
18 16 5 7 7 5 6 5 3 2 2 2 3 5 6 6 6 6 6 6 6 6 6 7 6 6 4 4 3 2 2 1 2 2 2 3 1 3 4 5 6 5 6
7 7 5 9 6 5 6 5 5 3 4 4 4 4 4 3 3 5 5 5 6 6 6 6 6 6 7 4 3 3 4 4 3 3 1 1 2 4 3 4 4 4 5
Wind_Direction
157 150 148 147 138 134 130 124 121 114 113 114 115 113 113 115 117 119 122 124 123 125 123 122 117 110 120 125 130 129 128 125 123 125 126 127 124 124 120 118 117 119 117
141 151 147 147 143 145 134 129 127 125 123 120 119 115 119 118 118 120 123 125 128 129 128 124 115 107 117 125 133 132 131 131 130 129 128 127 124 129 122 120 120 119 119
142 150 150 149 153 151 140 139 137 137 131 124 123 123 123 125 124 121 122 124 127 127 125 126 117 110 115 122 131 133 134 134 133 130 122 105 124 131 127 127 129 123 124
143 148 149 152 157 158 154 150 148 144 138 136 137 137 135 133 131 125 130 128 133 133 132 132 123 117 120 121 130 133 136 141 138 129 119 124 123 134 134 131 129 131 126
141 143 154 157 160 163 161 159 157 152 147 146 145 145 144 141 139 137 139 140 140 141 139 140 135 126 129 127 130 136 140 143 142 129 121 118 120 133 134 136 136 132 130
138 144 152 154 157 160 159 163 164 158 153 152 152 153 149 149 147 145 148 149 143 154 157 154 157 144 143 133 131 144 150 149 156 155 137 149 122 141 140 141 140 136 140
141 144 145 144 143 149 156 163 163 161 158 157 154 156 155 153 152 150 152 151 158 157 165 167 168 167 159 151 140 153 160 154 164 159 146 127 143 146 145 147 144 142 146
144 146 151 142 136 143 157 164 165 164 164 161 159 160 159 160 161 159 159 162 161 158 167 169 176 174 176 171 157 151 180 170 174 163 153 143 150 154 149 148 147 147 151
144 150 153 152 152 156 160 164 164 165 168 164 162 161 161 166 168 170 168 166 169 175 185 181 177 184 181 186 183 154 182 187 152 87 148 153 149 156 155 155 156 153 156
148 152 157 162 155 156 161 159 160 166 166 166 166 169 170 170 170 170 172 175 174 180 191 195 180 194 187 191 206 176 182 196 157 111 154 169 157 158 160 164 163 163 160
155 161 161 159 156 154 150 166 159 164 169 174 175 176 177 158 174 182 173 191 188 198 196 193 197 195 201 205 214 186 189 163 181 121 173 174 164 166 164 168 165 168 169
160 171 168 158 163 157 156 142 136 163 130 150 182 187 159 176 173 179 189 199 220 196 205 205 205 211 206 192 215 201 157 171 177 218 142 171 174 172 166 165 170 174 177
174 170 175 167 167 157 143 146 143 134 145 136 127 140 191 172 206 190 174 180 185 198 190 202 195 201 189 196 213 198 171 163 208 143 170 189 185 174 177 171 173 181 182
174 178 176 168 161 147 139 157 157 152 152 174 178 180 174 167 172 192 173 170 181 157 185 214 215 203 192 206 202 222 185 161 151 174 149 200 191 179 179 179 177 184 189
182 172 178 160 158 163 160 156 154 167 178 195 199 189 178 177 169 166 159 177 183 197 189 187 216 225 190 207 215 199 202 171 176 165 182 217 193 187 186 185 188 188 195
181 177 172 167 160 161 165 161 169 187 198 190 201 197 190 181 173 178 176 186 197 206 193 174 201 216 205 225 211 206 218 186 163 158 190 210 197 191 194 193 193 193 197
180 174 173 163 162 169 181 173 183 205 188 189 183 175 183 186 184 183 191 186 202 199 198 177 206 205 219 216 219 218 206 203 124 161 204 206 224 211 194 201 197 197 201
166 174 177 174 172 174 184 188 174 202 201 197 192 197 192 189 180 183 189 203 205 196 189 186 183 205 223 221 222 222 185 161 142 183 209 207 212 209 204 203 202 199 204
171 167 175 174 178 175 189 191 196 182 200 207 202 199 197 192 192 186 194 209 192 187 181 175 185 193 184 222 237 217 203 193 183 197 198 203 194 198 197 210 206 203 207
168 171 182 172 170 169 171 151 238 177 188 188 225 222 211 197 194 184 200 208 190 175 191 177 166 204 196 175 240 202 192 221 196 177 198 190 184 193 200 202 213 216 207
165 176 180 163 179 157 129 146 199 190 204 227 216 239 232 207 200 189 194 182 201 188 194 190 154 186 234 201 113 318 311 246 212 202 197 200 193 203 204 200 208 213 211
227 184 177 172 159 161 156 149 161 155 183 234 250 258 246 219 197 188 183 199 192 188 183 183 176 162 196 176 155 139 164 319 277 229 186 188 192 185 208 216 194 203 202
247 320 173 151 152 156 144 114 87 73 38 340 287 275 254 223 222 198 194 186 185 178 192 188 188 173 179 190 207 148 124 219 169 298 205 207 191 206 214 214 208 217 190
4 314 119 252 147 157 140 125 152 172 209 230 249 256 275 261 224 210 196 188 182 186 184 192 195 190 165 178 208 183 144 151 145 315 303 190 198 215 217 217 205 204 190
171 211 225 158 144 152 135 133 133 176 210 226 261 277 267 257 232 211 199 190 188 175 194 186 174 187 175 152 159 134 119 80 108 148 260 317 37 229 220 218 215 203 201
188 149 169 128 108 117 121 141 106 57 352 332 297 273 267 247 227 218 192 183 189 181 183 191 189 187 183 172 160 170 163 165 182 144 218 314 261 288 231 211 206 215 208